Location: Waldport
(44.4270°N, 124.0680°W)
Time: 07:48:28
(UTC-07:00)

Cosmos 1441 Rocket - Pass Details

Date: 23 June 2018
Orbit: 497 x 543 km, 81.1° (Epoch: 19 July)

Event Time Altitude Azimuth Distance (km) Brightness Sun altitude
Rises 23:43:03 0° 355° (N) 2,632 8.2 -18.7°
Reaches altitude 10° 23:45:16 10° 2° (N) 1,733 6.8 -18.9°
Maximum altitude 23:48:55 45° 76° (ENE) 694 3.7 -19.1°
Enters shadow 23:49:30 41° 104° (ESE) 736 3.6 -19.2°
